User: anonymous   Login
Location: Unspecified
(0.0000°N, 0.0000°E)
Time: 07:24:00
(UTC+00:00)
Language:

NANOSAT 1B - Orbit

View from above orbital plane
View from above orbital plane
View from above satellite
View from above satellite

Ground track
Ground track

The orbit data is extracted from the following two-line orbital elements,

1 35685U 09041E   19082.96473824  .00000031  00000-0  10791-4 0  9990
2 35685  98.2903  90.9555 0059958 126.4564 234.2196 14.84178150521900
Epoch (UTC): 23 March 2019 23:09:13
Eccentricity: 0.0059958
inclination: 98.2903°
perigee height: 574 km
apogee height: 658 km
right ascension of ascending node: 90.9555°
argument of perigee: 126.4564°
revolutions per day: 14.84178150
mean anomaly at epoch: 234.2196°
orbit number at epoch: 52190

The dashed part of the orbit path shows where the satellite is in the earth's shadow,  

DLR